Flag for Pakistan Weather past 2 weeks in Islamabad, Pakistan

Now
82 °F

Passing clouds.


Feels Like: 85 °F
Forecast: 74 / 96 °F
Wind: 5 mph from Northeast

Location: Islamabad Airport

Current Time: Aug 28, 2015 at 10:30:10 AM

Latest Report: Aug 28, 2015 at 9:00 AM


Visibility: 4 mi

Pressure: 29.80 "Hg (27.98 "Hg at 554m altitude)

Humidity: 58%

Dew point: 66 °F

Location of IslamabadLocation

Historic Weather in Islamabad — Graph

°F

Islamabad temperature yesterday

Maximum temperature yesterday: 97 °F (at 1:00 PM)
Minimum temperature yesterday: 73 °F (at 10:00 PM)
Average temperature yesterday: 86 °F

Past Weeks' High & Low Weather Summary

 TemperatureHumidityPressure
High97 °F (Aug 18, 3:00 PM)100% (Aug 15, 6:00 AM)29.80 "Hg (Aug 15, 6:00 AM)
Low70 °F (Aug 20, 9:00 PM)32% (Aug 25, 6:00 PM)29.59 "Hg (Aug 22, 4:00 PM)
Average85 °F67%29.68 "Hg
* Reported Aug 13 9:00 AM — Aug 28 9:00 AM, Islamabad, Weather by CustomWeather, © 2015

Note: Actual official high and low records may vary slightly from our data, if they occured in-between our weather recording intervals... More about our weather records

Advertising

Islamabad weather history for previous 24 hours

 ConditionsComfort  
Time TempWeatherWind HumidityBarometerVisibility
9:00 AM
Fri, Aug 28
82 °FPassing clouds.5 mph58%29.80 "Hg4 mi
8:00 AM77 °FPassing clouds.5 mph69%29.80 "Hg4 mi
7:00 AM73 °FPassing clouds.5 mph78%29.77 "Hg4 mi
6:00 AM70 °FPassing clouds.5 mph83%29.77 "Hg4 mi
5:00 AM72 °FPassing clouds.5 mph83%29.74 "Hg4 mi
4:00 AM73 °FPassing clouds.5 mph78%29.71 "Hg4 mi
3:00 AM75 °FPassing clouds.9 mph69%29.71 "Hg4 mi
2:00 AM75 °FPassing clouds.9 mph69%29.71 "Hg4 mi
1:00 AM77 °FPassing clouds.12 mph65%29.71 "Hg4 mi
12:00 AM77 °FPassing clouds.12 mph61%29.71 "Hg4 mi
11:00 PM
Thu, Aug 27
77 °FPassing clouds.16 mph61%29.74 "Hg4 mi
10:00 PM73 °FPassing clouds.18 mph83%29.74 "Hg4 mi
9:00 PM75 °FFog.16 mph89%29.77 "Hg2 mi
8:00 PM75 °FPartly cloudy.18 mph89%29.77 "Hg2 mi
7:00 PM77 °FThunderstorms. Partly cloudy.30 mph83%29.74 "Hg2 mi
6:30 PM82 °FThunderstorms. Broken clouds.30 mph79%29.71 "Hg2 mi
6:00 PM82 °FThunderstorms. Broken clouds.30 mph79%29.71 "Hg2 mi
5:00 PM90 °FBroken clouds.18 mph63%29.65 "Hg3 mi
4:00 PM91 °FBroken clouds.12 mph56%29.65 "Hg3 mi
3:30 PM93 °FBroken clouds.25 mph53%29.68 "Hg3 mi
3:00 PM93 °FBroken clouds.9 mph53%29.68 "Hg3 mi
2:30 PM97 °FThunderstorms. Scattered clouds.7 mph50%29.68 "Hg3 mi
2:00 PM97 °FScattered clouds.7 mph50%29.68 "Hg3 mi
1:00 PM97 °FScattered clouds.7 mph50%29.71 "Hg4 mi
12:00 PM95 °FScattered clouds.7 mph53%29.71 "Hg4 mi
11:00 AM93 °FPassing clouds.7 mph53%29.74 "Hg4 mi
10:00 AM90 °FPassing clouds.7 mph59%29.74 "Hg4 mi
Weather by CustomWeather, © 2015

See weather overviewHow to use our weather pages